Hourly Data Report for October 05, 2016

All times are specified in Local Standard Time (LST). Add 1 hour to adjust for Daylight Saving Time where and when it is observed.

WINNIPEG A CS
MANITOBA

49°55'00.000" N
97°14'58.000" W
238.70 m
502S001
71849
XWG

Download Data

Hourly Data (October 2016)
Hourly Data Report for October 5, 2016
Temp Definition
°C
Dew Point Temp Definition
°C
Rel Hum Definition
%
Wind Dir Definition
10's deg

Wind Spd Definition
km/h
Visibility Definition
km
Stn Press Definition
kPa
Hmdx Definition


Wind Chill Definition


Weather Definition


TIME
00:00 13.2 12.3 94 22 9   97.05     LegendNANA
01:00 13.1 12.4 96 15 8   97.04     LegendNANA
02:00 13.4 12.3 93 16 11   97.03     LegendNANA
03:00 13.5 12.4 93 17 14   96.96     LegendNANA
04:00 13.7 12.7 93 18 22   96.95     LegendNANA
05:00 13.2 12.1 93 18 20   96.95     LegendNANA
06:00 11.8 8.9 83 19 20   96.95     LegendNANA
07:00 10.1 6.9 81 19 17   96.96     LegendNANA
08:00 8.9 5.7 80 19 22   96.93     LegendNANA
09:00 9.3 6.2 81 19 25   96.93     LegendNANA
10:00 8.6 5.4 80 19 31   96.93     LegendNANA
11:00 9.1 7.1 87 18 24   96.94     LegendNANA
12:00 8.7 6.9 88 19 36   96.95     LegendNANA
13:00 8.6 5.8 82 19 30   96.96     LegendNANA
14:00 8.6 5.5 81 19 35   96.97     LegendNANA
15:00 8.5 5.0 79 19 33   96.99     LegendNANA
16:00 8.4 3.8 73 19 28   97.04     LegendNANA
17:00 7.8 3.7 75 20 29   97.08     LegendNANA
18:00 7.2 3.7 79 19 26   97.10     LegendNANA
19:00 6.2 4.8 91 19 27   97.14     LegendNANA
20:00 6.2 5.5 95 19 19   97.15     LegendNANA
21:00 6.9 6.3 96 21 17   97.18     LegendNANA
22:00 7.1 5.6 90 26 25   97.28     LegendNANA
23:00 5.6 3.2 84 25 26   97.38     LegendNANA

Notes on Data Quality.

Legend

  • E = Estimated
  • M = Missing
  • NA = Not Available
  • ‡ = Partner data that is not subject to review by the National Climate Archives
Date modified: